Minneapolis Flying Cloud, MN

7:05 AM CDT on May 21, 2018 (GMT -0500)
Flying Cloud

Weather History for KFCM - September, 2014

Change the Weather History Date:

Tuesday, September 2, 2014

  Actual Average Record
Temperature  
Mean Temperature 69 °F -  
Max Temperature 79 °F 78 °F 90 °F (1999)
Min Temperature 60 °F 57 °F 48 °F (1998)
Cooling Degree Days 4    
Growing Degree Days 19 (Base 50)    
Moisture  
Dew Point 56 °F    
Average Humidity 68    
Maximum Humidity 93    
Minimum Humidity 37    
Precipitation  
Precipitation 0.00 in - - ()
Sea Level Pressure  
Sea Level Pressure 29.86 in    
Wind  
Wind Speed 6 mph (SW)    
Max Wind Speed 13 mph    
Max Gust Speed 18 mph    
Visibility 10 miles    
Events      
Averages and records for this station are not official NWS values.
T = Trace of Precipitation, MM = Missing Value Source: NWS Daily Summary

Daily Weather History Graph

Daily Weather History Graph

Search for Another Location

Airport or City:

Astronomy

Sep. 02, 2014 Rise Set
Actual Time 6:37 AM CDT 7:48 PM CDT
Civil Twilight 6:07 AM CDT 8:18 PM CDT
Nautical Twilight 5:30 AM CDT 8:54 PM CDT
Astronomical Twilight 4:52 AM CDT 9:33 PM CDT
Moon 2:40 PM CDT (9/2) No Moon Set
Length of Visible Light 14h 11m
Length of Day
13h 11m
First Quarter, 53% of the Moon is Illuminated
Sep 2
First Quarter
Sep 8
Full
Sep 15
Last Quarter
Sep 24
New
Oct 1
First Quarter

Hourly Weather History & Observations

Time (CDT) Temp. Dew Point Humidity Pressure Visibility Wind Dir Wind Speed Gust Speed Precip Events Conditions
12:53 AM 64.0 °F 59.0 °F 84% 29.80 in 10.0 mi West 4.6 mph - N/A   Mostly Cloudy
1:53 AM 62.1 °F 59.0 °F 90% 29.81 in 10.0 mi SSW 4.6 mph - N/A   Clear
2:53 AM 62.1 °F 59.0 °F 90% 29.81 in 10.0 mi SW 4.6 mph - N/A   Clear
3:53 AM 62.1 °F 59.0 °F 90% 29.82 in 10.0 mi WSW 5.8 mph - N/A   Scattered Clouds
4:53 AM 61.0 °F 57.9 °F 90% 29.82 in 10.0 mi WSW 5.8 mph - N/A   Clear
5:53 AM 60.1 °F 57.9 °F 93% 29.84 in 10.0 mi SW 4.6 mph - N/A   Scattered Clouds
6:53 AM 60.1 °F 57.9 °F 93% 29.86 in 10.0 mi SW 5.8 mph - N/A   Partly Cloudy
7:53 AM 61.0 °F 57.9 °F 90% 29.87 in 10.0 mi WSW 4.6 mph - N/A   Clear
8:53 AM 64.9 °F 57.9 °F 78% 29.88 in 10.0 mi West 4.6 mph - N/A   Clear
9:53 AM 68.0 °F 57.9 °F 70% 29.88 in 10.0 mi WNW 4.6 mph - N/A   Clear
10:53 AM 72.0 °F 57.0 °F 59% 29.89 in 10.0 mi Calm Calm - N/A   Clear
11:53 AM 73.9 °F 54.0 °F 50% 29.89 in 10.0 mi West 4.6 mph - N/A   Clear
12:53 PM 75.0 °F 53.1 °F 46% 29.89 in 10.0 mi SSW 10.4 mph - N/A   Clear
1:53 PM 77.0 °F 50.0 °F 39% 29.88 in 10.0 mi WSW 10.4 mph - N/A   Clear
2:53 PM 78.1 °F 50.0 °F 37% 29.88 in 10.0 mi WSW 12.7 mph - N/A   Clear
3:53 PM 78.1 °F 52.0 °F 40% 29.87 in 10.0 mi SW 12.7 mph 18.4 mph N/A   Clear
4:53 PM 78.1 °F 51.1 °F 39% 29.87 in 10.0 mi WSW 10.4 mph - N/A   Clear
5:53 PM 77.0 °F 53.1 °F 43% 29.87 in 10.0 mi WSW 9.2 mph - N/A   Clear
6:53 PM 75.0 °F 54.0 °F 48% 29.86 in 10.0 mi SW 5.8 mph - N/A   Clear
7:53 PM 70.0 °F 55.0 °F 59% 29.86 in 10.0 mi SW 4.6 mph - N/A   Clear
8:53 PM 66.9 °F 57.0 °F 70% 29.86 in 10.0 mi SSW 5.8 mph - N/A   Clear
10:53 PM 64.9 °F 57.9 °F 78% 29.86 in 10.0 mi SW 6.9 mph - N/A   Clear
11:53 PM 64.9 °F 57.9 °F 78% 29.87 in 10.0 mi SSW 9.2 mph - N/A   Clear